User: anonymous   Login
Location: Melbourne
(37.8170°S, 144.9670°E)
Time: 14:22:23
(UTC+10:00)
Language:

Cosmos 962 Rocket - Orbit

View from above orbital plane
View from above orbital plane
View from above satellite
View from above satellite

Ground track
Ground track

The orbit data is extracted from the following two-line orbital elements,

1 10461U 77107B   15188.13809096  .00000086  00000-0  72244-4 0  9990
2 10461 082.9474 181.2548 0032842 340.5972 069.4664 13.76731713892931
Epoch (UTC): 07 July 2015 03:18:51
Eccentricity: 0.0032842
inclination: 82.9474°
perigee height: 951 km
apogee height: 999 km
right ascension of ascending node: 181.2548°
argument of perigee: 340.5972°
revolutions per day: 13.76731713
mean anomaly at epoch: 69.4664°
orbit number at epoch: 89293

The dashed part of the orbit path shows where the satellite is in the earth's shadow,  

DLR